Flag for Spain Weather past 2 weeks in Linares, Spain

Now
82 °F

Passing clouds.


Feels Like: 81 °F
Forecast: 62 / 96 °F
Wind: 3 mph from Southwest

Location: Granada / Aeropuerto

Current Time: Aug 27, 2015 at 11:38:13 PM

Latest Report: Aug 27, 2015 at 11:00 PM


Visibility: N/A

Pressure: 30.04 "Hg

Humidity: 35%

Dew point: 52 °F

Location of LinaresLocation

Historic Weather in Linares — Graph

°F

Linares temperature yesterday

Maximum temperature yesterday: 95 °F (at 4:30 PM)
Minimum temperature yesterday: 59 °F (at 6:00 AM)
Average temperature yesterday: 80 °F

Past Weeks' High & Low Weather Summary

 TemperatureHumidityPressure
High99 °F (Aug 20, 5:30 PM)88% (Aug 20, 8:00 AM)30.18 "Hg (Aug 20, 8:00 AM)
Low54 °F (Aug 15, 7:30 AM)8% (Aug 13, 4:30 PM)29.86 "Hg (Aug 17, 6:30 PM)
Average80 °F42%30.04 "Hg
* Reported Aug 12 10:00 PM — Aug 27 10:00 PM, Linares, Weather by CustomWeather, © 2015

Note: Actual official high and low records may vary slightly from our data, if they occured in-between our weather recording intervals... More about our weather records

Advertising

Linares weather history for previous 24 hours

 ConditionsComfort  
Time TempWeatherWind HumidityBarometerVisibility
10:00 PM
Thu, Aug 27
84 °FClear.No wind33%30.04 "Hg10 mi
9:30 PM86 °FSunny.No wind33%30.01 "Hg10 mi
9:00 PM88 °FPassing clouds.2 mph29%30.01 "HgN/A
8:30 PM90 °FPassing clouds.10 mph27%29.98 "HgN/A
8:00 PM91 °FPassing clouds.7 mph23%29.98 "HgN/A
7:30 PM93 °FPassing clouds.9 mph23%29.98 "HgN/A
7:00 PM95 °FPassing clouds.12 mph22%29.98 "HgN/A
6:30 PM97 °FPassing clouds.10 mph20%29.98 "HgN/A
6:00 PM99 °FSunny.5 mph17%29.98 "Hg10 mi
5:30 PM97 °FPassing clouds.7 mph19%29.98 "HgN/A
5:00 PM97 °FPassing clouds.5 mph22%29.98 "HgN/A
4:30 PM97 °FPassing clouds.10 mph20%29.98 "HgN/A
4:00 PM97 °FPassing clouds.6 mph20%30.01 "HgN/A
3:30 PM95 °FPassing clouds.7 mph22%30.01 "HgN/A
3:00 PM93 °FPassing clouds.5 mph24%30.01 "HgN/A
2:30 PM91 °FSunny.2 mph26%30.04 "Hg10 mi
2:00 PM90 °FSunny.2 mph29%30.04 "Hg10 mi
1:30 PM88 °FSunny.1 mph33%30.04 "Hg10 mi
1:00 PM88 °FSunny.No wind35%30.07 "Hg10 mi
12:30 PM84 °FSunny.2 mph40%30.07 "Hg10 mi
12:00 PM84 °FSunny.No wind40%30.07 "Hg10 mi
11:30 AM82 °FSunny.No wind42%30.09 "Hg10 mi
11:00 AM77 °FSunny.No wind54%30.09 "Hg10 mi
10:30 AM73 °FSunny.1 mph61%30.09 "Hg10 mi
10:00 AM72 °FSunny.2 mph61%30.07 "Hg10 mi
9:30 AM68 °FSunny.1 mph69%30.07 "Hg10 mi
9:00 AM68 °FSunny.2 mph69%30.07 "Hg10 mi
8:30 AM66 °FClear.1 mph68%30.07 "Hg10 mi
8:00 AM63 °FClear.1 mph77%30.07 "Hg10 mi
7:30 AM63 °FClear.2 mph77%30.07 "Hg10 mi
7:00 AM64 °FClear.1 mph73%30.07 "Hg10 mi
6:30 AM64 °FClear.No wind73%30.07 "Hg10 mi
6:00 AM66 °FClear.No wind68%30.07 "Hg10 mi
11:00 PM
Wed, Aug 26
81 °FClear.2 mph42%30.07 "Hg10 mi
Weather by CustomWeather, © 2015

See weather overviewHow to use our weather pages